APG502 WBKK-RPLL

Flight info

Callsign APG502
Flight time N/A
Altitude 37000
Route VETAG1F VETAG DCT OSANU M646 TOKON DCT LUBAN LUBAN3R
Aircraft A320/M-SDFGHIRWY/LB1

Departure

Time 2026-04-25 08:30
Airport Kota Kinabalu International Airport (WBKK)

Arrival

Time N/A
Airport Ninoy Aquino International Airport (RPLL)
Time Latitude Longitude Altitude Speed Heading
2026-04-25 08:16 5.92193 116.05015 29 ft 0 kts 68°
2026-04-25 08:22 5.92192 116.05015 29 ft 1 kts 68°
2026-04-25 08:22 5.92186 116.04999 29 ft 2 kts 68°
2026-04-25 08:22 5.92180 116.04983 29 ft 2 kts 68°
2026-04-25 08:22 5.92173 116.04967 29 ft 2 kts 68°
2026-04-25 08:23 5.92167 116.04951 29 ft 2 kts 68°
2026-04-25 08:23 5.92160 116.04936 29 ft 2 kts 25°
2026-04-25 08:23 5.92145 116.04934 29 ft 1 kts 338°
2026-04-25 08:25 5.92162 116.04927 29 ft 6 kts 336°
2026-04-25 08:26 5.92227 116.04899 29 ft 14 kts 337°
2026-04-25 08:26 5.92323 116.04860 29 ft 16 kts 338°
2026-04-25 08:26 5.92398 116.04818 29 ft 11 kts 303°
2026-04-25 08:26 5.92398 116.04745 29 ft 12 kts 217°
2026-04-25 08:27 5.92327 116.04714 29 ft 11 kts 202°
2026-04-25 08:27 5.92243 116.04678 29 ft 15 kts 203°
2026-04-25 08:27 5.92133 116.04632 29 ft 19 kts 202°
2026-04-25 08:27 5.91999 116.04576 29 ft 22 kts 203°
2026-04-25 08:28 5.91857 116.04515 29 ft 22 kts 202°
2026-04-25 08:28 5.91784 116.04464 29 ft 9 kts 259°
2026-04-25 08:28 5.91799 116.04404 29 ft 10 kts 291°
2026-04-25 08:28 5.91830 116.04339 29 ft 11 kts 298°
2026-04-25 08:29 5.91888 116.04341 29 ft 11 kts 22°
2026-04-25 08:29 5.92054 116.04410 29 ft 54 kts 22°
2026-04-25 08:29 5.92608 116.04644 29 ft 116 kts 23°
2026-04-25 08:29 5.93519 116.05030 30 ft 165 kts 23°
2026-04-25 08:30 5.94595 116.05503 542 ft 169 kts 20°
2026-04-25 08:30 5.95690 116.05951 1141 ft 171 kts 18°
2026-04-25 08:30 5.96846 116.06404 1578 ft 188 kts 20°
2026-04-25 08:30 5.98131 116.06909 1924 ft 205 kts 20°
2026-04-25 08:31 5.99489 116.07448 2433 ft 213 kts 20°
2026-04-25 08:31 6.00861 116.07996 3017 ft 216 kts 21°
2026-04-25 08:31 6.02266 116.08559 3606 ft 218 kts 22°
2026-04-25 08:31 6.03741 116.09156 3908 ft 240 kts 22°
2026-04-25 08:32 6.05374 116.09819 4278 ft 262 kts 23°
2026-04-25 08:32 6.07099 116.10522 4971 ft 270 kts 24°
2026-04-25 08:32 6.08859 116.11237 5731 ft 275 kts 25°
2026-04-25 08:32 6.10626 116.11952 6492 ft 279 kts 24°
2026-04-25 08:33 6.12452 116.12690 7239 ft 283 kts 24°
2026-04-25 08:33 6.14296 116.13437 8023 ft 286 kts 24°
2026-04-25 08:33 6.16150 116.14188 8812 ft 287 kts 24°
2026-04-25 08:33 6.17969 116.14973 9619 ft 287 kts 30°
2026-04-25 08:34 6.19624 116.16092 10232 ft 291 kts 41°
2026-04-25 08:34 6.21269 116.17382 10397 ft 313 kts 40°
2026-04-25 08:34 6.23042 116.18785 10637 ft 331 kts 41°
2026-04-25 08:34 6.24870 116.20232 11193 ft 337 kts 40°
2026-04-25 08:35 6.26737 116.21702 11739 ft 343 kts 40°
2026-04-25 08:35 6.28626 116.23185 12390 ft 345 kts 40°
2026-04-25 08:35 6.30535 116.24681 13013 ft 348 kts 39°
2026-04-25 08:35 6.32438 116.26176 13585 ft 353 kts 39°
2026-04-25 08:36 6.34386 116.27709 14078 ft 358 kts 39°
2026-04-25 08:36 6.36368 116.29268 14587 ft 362 kts 39°
2026-04-25 08:36 6.38363 116.30835 15102 ft 365 kts 39°
2026-04-25 08:36 6.40355 116.32399 15608 ft 369 kts 39°
2026-04-25 08:37 6.42392 116.34003 16103 ft 372 kts 39°
2026-04-25 08:37 6.44438 116.35613 16607 ft 375 kts 39°
2026-04-25 08:37 6.46500 116.37249 17098 ft 379 kts 41°
2026-04-25 08:37 6.48359 116.39130 17605 ft 380 kts 52°
2026-04-25 08:38 6.50037 116.41184 18158 ft 381 kts 51°
2026-04-25 08:38 6.51742 116.43255 18576 ft 384 kts 51°
2026-04-25 08:38 6.53434 116.45302 19052 ft 386 kts 52°
2026-04-25 08:38 6.55162 116.47390 19457 ft 390 kts 52°
2026-04-25 08:39 6.56907 116.49499 19938 ft 391 kts 52°
2026-04-25 08:39 6.58778 116.51504 20372 ft 395 kts 43°
2026-04-25 08:39 6.60984 116.53183 20801 ft 399 kts 37°
2026-04-25 08:39 6.63241 116.54759 21262 ft 401 kts 36°
2026-04-25 08:40 6.65541 116.56372 21678 ft 404 kts 37°
2026-04-25 08:40 6.67861 116.58000 22141 ft 406 kts 36°
2026-04-25 08:40 6.70185 116.59636 22514 ft 410 kts 36°
2026-04-25 08:40 6.72529 116.61287 22970 ft 411 kts 38°
2026-04-25 08:41 6.74853 116.62926 23349 ft 414 kts 36°
2026-04-25 08:41 6.77226 116.64598 23663 ft 416 kts 37°
2026-04-25 08:41 6.79614 116.66277 24024 ft 418 kts 35°
2026-04-25 08:41 6.82018 116.67966 24287 ft 422 kts 36°
2026-04-25 08:42 6.84405 116.69647 24589 ft 424 kts 36°
2026-04-25 08:42 6.86843 116.71367 24876 ft 427 kts 37°
2026-04-25 08:42 6.89265 116.73076 25193 ft 429 kts 36°
2026-04-25 08:42 6.91717 116.74805 25484 ft 431 kts 36°
2026-04-25 08:43 6.94191 116.76546 25782 ft 433 kts 36°
2026-04-25 08:43 6.95844 116.77708 25988 ft 434 kts 36°
2026-04-25 08:43 6.99142 116.80026 26350 ft 437 kts 36°
2026-04-25 08:43 7.01650 116.81789 26643 ft 439 kts 36°
2026-04-25 08:44 7.03319 116.82962 26834 ft 441 kts 37°
2026-04-25 08:44 7.06702 116.85341 27215 ft 443 kts 36°
2026-04-25 08:44 7.08386 116.86527 27386 ft 445 kts 36°
2026-04-25 08:44 7.10936 116.88324 27653 ft 447 kts 36°
2026-04-25 08:45 7.13460 116.90104 27911 ft 449 kts 36°
2026-04-25 08:45 7.16025 116.91914 28155 ft 451 kts 36°
2026-04-25 08:45 7.18626 116.93747 28414 ft 453 kts 35°
2026-04-25 08:45 7.21216 116.95572 28642 ft 456 kts 36°
2026-04-25 08:46 7.23788 116.97388 28887 ft 457 kts 35°